Find Kosmos-1732

NORAD ID: 16593 Int'l Des: 1986-015 Owner: VTS Country: SU operational
Also known as: COSMOS 1732 spacetrack, celestrak
LEOCIRCULAR

Current View

Loading 3D Globe...

About Kosmos-1732

Kosmos-1732 (NORAD 16593) is a satellite launched Feb 11, 1986 by VTS of SU. It operates in LEO, CIRCULAR orbit with a mass of 1557.00 kg.

Upcoming Passes

Passes for default location (London). Set your location on the main map for personalized predictions.

Altitude History

Loading altitude history...

Two-Line Element Set

1 16593U 86015A 26263.24510034 -.00000018 00000-0 -64006-5 0 9994
2 16593 73.6120 177.9711 0027298 289.3964 70.4130 12.41028096839612
Epoch: Sep 20, 2026 • Age: 15 hours

Current Status

Altitude 1510.2 km
Apogee / Perigee N/A
Velocity 7.11 km/s
Sub-Earth Point -5.77°S, 52.73°E
Launch Date Feb 11, 1986
Age 40.6 years
Type other

Technical Details

Classification Payload
Mass 1557.00 kg
Dry Mass 1557.00 kg
Total Mass 1557.00 kg
Length 5.80 m
Diameter 2.40 m
Span 17.80 m
Shape Cyl + 2 Pan + Ant
Manufacturer NPOPM
Bus Type KAUR-1 11F666
Phase Status In Orbit
Owner/State VTS/SU

Most Searched